User: anonymous   Login
Location: Anumalkud?ru
(16.4847°N, 80.6636°E)
Time: 07:52:51
(UTC+00:00)
Language:

Maqsat-H - Orbit

View from above orbital plane
View from above orbital plane
View from above satellite
View from above satellite

Ground track
Ground track

The orbit is defined by the following mean orbital elements,

1 25023U          26158.73546604 +.00000000 +00000-0 +28932-2 0 00008
2 25023   7.9288 340.9154 6494626 150.6422 230.4618  3.10940881    09
Epoch (UTC): 07 June 2026 17:39:04
Eccentricity: 0.6494626
inclination: 7.9288°
perigee height: 572 km
apogee height: 26328 km
right ascension of ascending node: 340.9154°
argument of perigee: 150.6422°
revolutions per day: 3.10940881
mean anomaly at epoch: 230.4618°

The dashed part of the orbit path shows where the satellite is in the earth's shadow,  

DLR